Fort Myers, FL

8:21 PM EST on November 23, 2017 (GMT -0500)
Page

Weather History for KFMY - January, 2014

Change the Weather History Date:

Wednesday, January 22, 2014

  Actual Average Record
Temperature  
Mean Temperature 55 °F 64 °F  
Max Temperature 63 °F 75 °F 88 °F (1962)
Min Temperature 46 °F 54 °F 30 °F (1985)
Degree Days  
Heating Degree Days 10 3  
Month to date heating degree days 99 85  
Since 1 July heating degree days 112 178  
Cooling Degree Days 0 3  
Month to date cooling degree days 70 65  
Year to date cooling degree days 70 65  
Growing Degree Days 4 (Base 50)    
Moisture  
Dew Point 40 °F    
Average Humidity 58    
Maximum Humidity 72    
Minimum Humidity 39    
Precipitation  
Precipitation 0.00 in 0.07 in 1.94 in (2016)
Month to date precipitation 0.34 1.36  
Year to date precipitation 0.34 1.36  
Sea Level Pressure  
Sea Level Pressure 30.10 in    
Wind  
Wind Speed 10 mph (NNW)    
Max Wind Speed 20 mph    
Max Gust Speed 25 mph    
Visibility 10 miles    
Events      
T = Trace of Precipitation, MM = Missing Value Source: NWS Daily Summary

Daily Weather History Graph

Daily Weather History Graph

Search for Another Location

Airport or City:

Trip Planner

Search our weather history database for the weather conditions in past years. The results will help you decide how hot, cold, wet, or windy it might be!

Date:

Astronomy

Jan. 22, 2014 Rise Set
Actual Time 7:16 AM EST 6:02 PM EST
Civil Twilight 6:51 AM EST 6:26 PM EST
Nautical Twilight 6:23 AM EST 6:55 PM EST
Astronomical Twilight 5:55 AM EST 7:22 PM EST
Moon 11:52 PM EST (1/22) 10:54 AM EST (1/22)
Length of Visible Light 11h 35m
Length of Day
10h 46m
Waning Gibbous, 65% of the Moon is Illuminated
Jan 22
Waning Gibbous
Jan 24
Last Quarter
Jan 30
New
Feb 6
First Quarter
Feb 14
Full

Hourly Weather History & Observations

Time (EST) Temp. Windchill Dew Point Humidity Pressure Visibility Wind Dir Wind Speed Gust Speed Precip Events Conditions
12:53 AM 62.1 °F - 48.9 °F 62% 29.95 in 10.0 mi NW 15.0 mph - N/A   Clear
1:53 AM 57.9 °F - 48.9 °F 72% 29.97 in 10.0 mi NW 13.8 mph - N/A   Mostly Cloudy
2:53 AM 57.0 °F - 45.0 °F 64% 29.97 in 10.0 mi NW 12.7 mph - N/A   Partly Cloudy
3:53 AM 55.0 °F - 43.0 °F 64% 30.00 in 10.0 mi North 9.2 mph - N/A   Clear
4:53 AM 54.0 °F - 41.0 °F 62% 30.01 in 10.0 mi North 10.4 mph - N/A   Clear
5:53 AM 52.0 °F - 41.0 °F 66% 30.04 in 10.0 mi North 9.2 mph - N/A   Clear
6:53 AM 51.1 °F - 39.0 °F 63% 30.07 in 10.0 mi North 8.1 mph - N/A   Clear
7:53 AM 51.1 °F - 37.9 °F 61% 30.09 in 10.0 mi North 9.2 mph - N/A   Clear
8:53 AM 54.0 °F - 39.0 °F 57% 30.12 in 10.0 mi North 9.2 mph - N/A   Clear
9:53 AM 55.0 °F - 37.9 °F 53% 30.14 in 10.0 mi NNW 5.8 mph - N/A   Clear
10:53 AM 57.9 °F - 37.0 °F 46% 30.15 in 10.0 mi NNW 10.4 mph - N/A   Clear
11:53 AM 59.0 °F - 35.1 °F 41% 30.14 in 10.0 mi North 11.5 mph - N/A   Clear
12:53 PM 61.0 °F - 36.0 °F 39% 30.12 in 10.0 mi NNW 6.9 mph 17.3 mph N/A   Clear
1:53 PM 61.0 °F - 39.9 °F 46% 30.11 in 10.0 mi West 10.4 mph - N/A   Clear
2:53 PM 61.0 °F - 39.0 °F 44% 30.10 in 10.0 mi West 12.7 mph - N/A   Clear
3:53 PM 60.1 °F - 39.9 °F 47% 30.11 in 10.0 mi WNW 11.5 mph - N/A   Clear
4:53 PM 57.9 °F - 39.0 °F 49% 30.13 in 10.0 mi WNW 11.5 mph - N/A   Clear
5:53 PM 54.0 °F - 39.0 °F 57% 30.14 in 10.0 mi NW 10.4 mph - N/A   Clear
6:53 PM 52.0 °F - 39.9 °F 63% 30.16 in 10.0 mi WNW 8.1 mph - N/A   Clear
7:53 PM 51.1 °F - 39.9 °F 66% 30.18 in 10.0 mi NW 8.1 mph - N/A   Clear
8:53 PM 48.9 °F - 39.0 °F 69% 30.19 in 10.0 mi NNW 10.4 mph - N/A   Clear
9:53 PM 48.0 °F - 39.0 °F 71% 30.20 in 10.0 mi NNW 5.8 mph - N/A   Clear
10:53 PM 46.0 °F 43.1 °F 37.9 °F 73% 30.21 in 10.0 mi NNW 5.8 mph - N/A   Clear
11:53 PM 46.9 °F - 36.0 °F 66% 30.21 in 10.0 mi North 6.9 mph - N/A   Clear